Regional Weather Roundup
Issued by NWS Wakefield, VA

Home | Current Version | Previous Version | Graphics & Text | Print | Product List | Glossary On
Versions: 1 2 3 4 5 6 7 8 9 10 11 12 13 14 15 16 17 18 19 20 21 22 23 24 25 26 27 28
000
ASUS41 KAKQ 282015
RWRAKQ

REGIONAL WEATHER ROUNDUP
NATIONAL WEATHER SERVICE WAKEFIELD VA
400 PM EDT FRI APR 28 2017

Note: "fair" indicates few or no clouds below 12,000 feet with no
significant weather and/or obstructions to visibility. * = Denotes
station may not report precipitation (e.g., rain,snow,etc.),
thunder or fog.

VAZ042-051-052>054-056-282100-
NORTHERN VIRGINIA

CITY           SKY/WX    TMP DP  RH WIND       PRES   REMARKS
WASH NATIONAL  MOSUNNY   83  60  45 S13       30.01F
DULLES         MOSUNNY   81  58  45 S12       30.00F
FORT BELVOIR   SUNNY     83  59  43 SE3G17    30.00F
QUANTICO       SUNNY     80  66  62 S7        30.01F
FREDERICKSBRG* MOSUNNY   84  63  48 S6        30.00F
STAFFORD*      SUNNY     81  64  54 S8        30.04F
WARRENTON      MOSUNNY   86  55  33 SE5       30.00F
CULPEPER*      SUNNY     85  61  44 S7        30.01F
MANASSAS*        N/A     83  61  47 S9G17     30.01F
LEESBURG*      MOSUNNY   82  59  44 CALM      30.01F
WINCHESTER     SUNNY     81  57  44 E6        30.00F
FRONT ROYAL*   CLEAR     82  61  47 SE10      29.99F
LURAY*         CLEAR     84  50  30 SW12      29.99F
$$

VAZ048-049-060>072-079>083-282100-
CENTRAL AND SOUTH CENTRAL VIRGINIA

CITY           SKY/WX    TMP DP  RH WIND       PRES   REMARKS
RICHMOND       PTSUNNY   84  65  52 SW13      30.02F
CHESTERFIELD*  FAIR     N/A N/A N/A SW8       30.04F
PETERSBURG*    MOSUNNY   83  61  46 S7        30.03F
HANOVER        MOSUNNY   83  60  45 S8        30.03F
TAPPAHANNOCK*  MOSUNNY   86  55  34 S6        30.04S
QUINTON*       FAIR      85  64  49 SW7       30.02F
CHARLOTTSVILLE MOSUNNY   84  58  40 S9G18     30.00F
GORDONSVILLE*  CLEAR     84  60  43 SW6       30.00F
ORANGE*        MOSUNNY   82  59  44 SE3       30.01F
LOUISA*        SUNNY     88  63  42 MISG      30.00F
BUMPASS*       FAIR      84  62  48 S6        30.02F
FARMVILLE*     MOSUNNY   85  64  50 S10G16    30.02F
CREWE*         FAIR      84  66  55 SW5       30.03F
FORT PICKETT*  FAIR      82  61  49 S3        30.04F
CHASE CITY*    FAIR      85  63  47 S3        30.04F
CLARKSVILLE*   FAIR      84  66  54 S8        30.03F
SOUTH HILL*    PTSUNNY   84  69  61 SW6       30.09F
LAWRENCEVILLE* MOCLDY    83  65  55 SW7       30.04F
EMPORIA*       MOSUNNY   82  68  61 S7        30.05F
$$

VAZ088>098-282100-
SOUTHEAST VIRGINIA

CITY           SKY/WX    TMP DP  RH WIND       PRES   REMARKS
NORFOLK        MOSUNNY   85  70  60 SW8       30.03F
VIRGINIA BEACH PTSUNNY   80  70  71 E10       30.03F
NORFOLK NAVAL  MOSUNNY   85  68  56 VRB5      30.05F
WEST POINT*    MOSUNNY   85  65  51 SW8       30.04F
SALUDA*        FAIR      77  71  79 E3        30.03F
NEWPORT NEWS   SUNNY     85  69  58 SW12      30.03F
LANGLEY AFB    MOSUNNY   85  71  61 SW8       30.03F
FORT EUSTIS    SUNNY     88  71  57 S7        30.01F
WILLIAMSBURG*  SUNNY     90  72  55 CALM      30.04S HX  96
HR EXEC AP*    FAIR      84  70  61 W7        30.00F
FRANKLIN*      MOSUNNY   84  69  60 SW6       30.04F
US460-WAKEFLD  MOSUNNY   85  68  56 S8        30.03F
$$

VAZ020-022-025-037-045-282100-
WEST CENTRAL AND SOUTHWEST VIRGINIA

CITY           SKY/WX    TMP DP  RH WIND       PRES   REMARKS
STAUNTON*      MOSUNNY   81  60  49 SW8       30.04F
WAYNESBORO*    PTCLDY    79  62  54 SW6       30.04F
HOT SPRINGS VA CLOUDY    70  45  40 SE8       30.14F
LYNCHBURG      SUNNY     82  60  47 S12       30.05F
DANVILLE       PTSUNNY   84  66  54 VRB6      30.04F
SOUTH BOSTON*  MOCLDY    83  63  49 S7        30.04S
MARTINSVILLE   MOSUNNY   82  60  48 S6        30.07F
ROANOKE        PTSUNNY   82  63  52 S10       30.04F
BLACKSBURG     SUNNY     83  31  15 S14G20    30.09S
DUBLIN*        SUNNY     82  44  26 S15       30.07S
MARION*        SUNNY     81  50  34 S12G20    30.07F
HILLSVILLE*    SUNNY     74  62  67 S12G22    30.09F
RICHLANDS*     FAIR      81  46  28 SW7       30.05F
WISE*          SUNNY     79  43  27 S12G18    30.05F
ABINGDON*      SUNNY     84  48  27 NW6       30.02F
$$

MDZ021>025-VAZ099-100-282100-
SOUTHERN MARYLAND AND THE DELMARVA PENINSULA

CITY           SKY/WX    TMP DP  RH WIND       PRES   REMARKS
PATUXENT RIVER MOSUNNY   77  65  66 SE8       30.04S
BAY BRIDGE APT SUNNY     84  59  42 S9        30.02F
LEONARDTOWN    MOSUNNY   81  59  47 E7        30.04F
DOVER          SUNNY     79  75  86 E9        30.01F
GEORGETOWN     SUNNY     86  57  37 SW9       30.02F
EASTON         MOSUNNY   84  54  34 SW7       30.07F
CAMBRIDGE      SUNNY     82  63  51 CALM      30.03F
SALISBURY      MOSUNNY   85  64  49 S10G17    30.02S
OCEAN CITY     SUNNY     69  64  84 S10       30.05S
WALLOPS ISLAND MOSUNNY   77  70  79 S10       30.05F
ACCOMACK*      MOSUNNY   83  68  61 W7        30.04F
$$

NCZ012>017-030>032-282100-
NORTH CENTRAL AND EASTERN NORTH CAROLINA

CITY           SKY/WX    TMP DP  RH WIND       PRES   REMARKS
ROANOKE RAPIDS FAIR      82  70  65 SW7       30.04F
RALEIGH        PTSUNNY   86  68  54 SW14      30.05F
ELIZABETH CITY SUNNY     86  73  65 S13       30.05F
AHOSKIE*         N/A     85  70  61 S3        30.05F
EDENTON*       SUNNY     89  70  54 SW8       30.06S
CURRITUCK*     MOSUNNY   87  69  54 S8        30.05F
KILL DEVIL HLS SUNNY     83  71  68 S8        30.06F
MANTEO         PTSUNNY   80  72  77 S16       30.07F
CAPE HATTERAS  CLOUDY    80  72  76 SW13      30.11F HAZE
TARBORO*       NOT AVBL
GOLDSBORO      MOSUNNY   89  69  51 S8        30.04F
WASHINGTON     MOSUNNY   87  70  57 SW9       30.06S
GREENVILLE     MOSUNNY   88  70  55 SW8       30.07F
NEW BERN       MOSUNNY   87  75  67 S12       30.08F HX  96
WILMINGTON     PTSUNNY   84  74  71 SW15G23   30.09F
$$

VAZ048-282100-
ELSEWHERE

CITY           SKY/WX    TMP DP  RH WIND       PRES   REMARKS
HARRISBURG PA  MOSUNNY   81  46  29 CALM      30.00F
BALTIMORE      MOSUNNY   83  57  41 VRB5G17   30.00F
ANNAPOLIS      SUNNY     77  60  55 SE14      30.02F
ANDREWS AFB    SUNNY     83  59  45 SW7       30.00F
PHILADELPHIA   MOSUNNY   84  51  31 W8        30.01F
HENDERSON NC   SUNNY     82  65  57 SW12      30.05F
GREENSBORO     MOSUNNY   83  67  58 S16       30.05F
ROCKY MOUNT    MOSUNNY   86  69  56 SW13      30.05F
$$

VAZ100-282100-
MARINE

STATION/POSITION TIME  TEMP    WIND        PRES    WAVE   SWELL
                       AIR SEA DIR/SP/G            HT/PER HT/PER
                 (UTC) (F)     (DEG/KT/KT) (MB)    (FT/S) (FT/S)
CAPE MAY NJ      1948   73 60  180/  8/ 10 1016.9R
LEWES DE         1948   77 58  150/  9/ 11 1017.0S
15NM E FENWICK I 1950   57 55  190/ 10/ 12 1018.0F   4/ 8   3/ 8
OCEAN-CITY-INLET 1948   60 59  220/  8/ 10 1018.2S
WACHAPREAGUE VA  1942   77 73  160/  9/ 12 1016.9F
THOMAS POINT MD  2000   73 62  170/ 11/ 12   N/A
GOOSES REEF MD   1950   70     150/ 10/ 10 1017.7F
COVE POINT MD    1942   72     170/ 10/ 11 1017.8F
SOLOMONS ISLAND  1942   72 64  110/  8/  9   N/A
BISHOPS HEAD MD  1948   72 71  180/  2/  3 1018.0F
PINEY POINT MD   1948          160/ 10/ 11   N/A
POTOMAC MD       1950   68     130/  6/  6 1016.5F
CAMBRIDGE MD     1936   82 67                N/A
LEWISETTA VA     1942   69 67  110/  8/  9 1017.0F
RAPPAHANNOCK LGT 1948          140/  9/  9 1017.9F
STINGRAY PT      1950   70     170/  8/ 10 1017.4F
YORK RVR RNG VA  1942   73     130/  9/ 10 1016.4F
YORKTOWN VA      1942   75 66   80/  5/  6 1016.5F
JAMESTOWN VA     1950   82     220/  2/  6   N/A
DOMINION TERM VA 1942   78     220/  7/  8 1017.1F
KIPTOPEKE VA     1948      63  170/  9/ 10   N/A
CHES BAY BRIDGE  1942   70 65  110/ 11/ 12 1017.1F
CAPE HENRY VA    1942   75     110/  8/ 12   N/A
WILLOUBY STN VA  1942   74      80/  6/  8 1018.3F
S CRANEY ISL VA  1942   84     210/  7/ 10 1017.0F
CAPE HENRY BUOY  1942      66                N/A     3/ 8
1ST LANDING BUOY 1950   70                 1017.3F
CAPE CHARLES BUO 1951      66                N/A     3/ 8
64NM E OF VA BCH 1950   62 57  200/ 12/ 12 1018.9F   5/ 6   3/ 6
DUCK PIER NC     1942   78 56  150/  6/  7 1017.5F
44100 DUCK FRF   1935      64                N/A     3/ 8   2/11
44056 DUCK FRF   1930      63                N/A     3/ 8
OREGON INLET NC  1942   75 75  180/ 18/ 22 1018.7F
HATTERAS NC      1942   78 71  190/  5/ 12 1019.4F
DIAMOND SHLS NC  1950   78 76  210/ 17/ 19 1019.8F   5/ 7   2/ 8
CAPE LOOKOUT NC  2000   78     200/ 13/ 16 1019.3F
$$




USA.gov is the U.S. government's official web portal to all federal, state and local government web resources and services.